Starlink 30556

operational
NORAD ID: 58031 Int'l Des: 2023-156 Owner: SPXS Country: US Constellation: starlink
LEOCIRCULAR

About Starlink 30556

Description loading...

Live Position

Loading 3D Globe...

Upcoming Passes

Altitude History

Altitude vs Time

uPlot chart will show altitude changes over time

Two-Line Element Set

1 58031U 23156D 26034.87612012 .00000082 00000-0 14886-4 0 9997
2 58031 53.1573 245.4533 0000939 89.4785 270.6323 15.30195042130985
Epoch: Feb 3, 2026 • Age: 12 hours

Current Status

Altitude 491.8 km
Velocity 7.62 km/s
Sub-Earth Point -46.90°S, 83.46°W
Launch Date Oct 9, 2023
Age 2.3 years
Type internet

Technical Details

Classification Payload
Mass 730.00 kg
Dry Mass 700.00 kg
Total Mass 730.00 kg
Length 0.30 m
Diameter 4.10 m
Span 29.00 m
Shape Box + pan
Manufacturer SPXS
Bus Type Starlink V2M
Phase Status In Orbit
Owner/State SPXS/US

Large Constellations

Loading constellations...